Temperature
22 24 24 24 24 24 24 24 24 24 25 24 24 23 23 22 21 21 20 19 18 17 16 15 15 16 16 16 16 16 16 17 17 16 16 16 16 16 16 15 15 16 16 16
23 24 24 24 24 23 23 23 24 24 24 23 23 22 22 21 20 19 19 18 17 16 15 14 14 15 15 15 15 15 16 16 16 16 16 16 15 15 15 15 15 15 15 15
23 24 24 23 23 23 23 24 24 23 23 23 23 22 21 21 20 19 18 17 16 16 15 14 14 14 14 14 15 15 15 15 15 15 15 15 15 15 15 14 14 15 15 15
24 24 23 23 23 23 23 24 23 23 23 23 23 22 22 21 20 19 18 16 16 15 14 13 13 13 14 14 14 14 15 15 15 15 15 14 14 14 14 14 14 14 14 14
24 24 23 23 24 23 23 24 23 23 23 23 23 22 22 21 20 19 18 16 15 14 13 13 12 12 13 13 13 14 14 14 14 14 14 14 14 13 13 13 13 13 13 13
24 24 24 24 24 23 23 23 23 23 23 22 23 22 22 21 21 19 17 15 14 13 12 12 12 12 12 12 13 13 13 13 13 13 13 13 13 13 12 12 12 12 12 12
23 24 24 24 23 23 23 22 22 22 22 22 23 22 21 21 20 19 17 15 13 12 12 12 12 11 11 12 12 12 12 13 13 13 13 12 12 12 12 12 11 11 11 11
23 23 24 24 23 23 23 22 21 21 21 22 22 22 21 19 18 17 15 14 12 12 11 11 11 11 11 11 11 11 11 12 12 12 11 11 11 11 11 10 10 10 10 10
23 23 23 23 23 23 23 23 23 22 22 21 22 21 19 18 17 16 14 13 12 11 10 10 10 10 10 10 10 11 11 11 11 11 11 10 10 10 10 10 9 9 9 9
23 22 23 23 23 23 23 23 22 21 20 20 21 21 21 18 17 15 14 13 11 10 9 9 9 9 9 9 9 10 10 10 10 10 10 9 9 9 9 9 8 8 8 8
23 21 22 23 22 23 22 22 21 22 21 20 20 20 19 18 17 15 14 12 10 9 9 9 9 9 9 9 9 9 9 9 9 9 8 8 8 8 8 8 7 7 7 7
22 22 22 22 23 22 22 22 21 20 20 21 20 19 18 17 16 15 13 11 9 9 8 8 8 8 8 8 8 8 8 8 8 8 7 7 7 7 7 7 6 6 6 6
21 21 20 21 21 21 21 22 21 21 21 20 20 19 16 16 14 13 11 10 9 8 8 8 7 7 7 7 7 7 7 7 7 7 6 6 6 6 6 6 5 5 6 6
21 21 21 20 21 21 21 21 21 21 20 20 20 18 16 15 13 11 10 9 8 8 7 7 7 7 7 7 6 6 6 6 6 6 6 5 5 5 5 5 5 5 5 5
21 21 21 21 21 21 21 21 21 20 20 20 19 19 16 14 13 11 9 8 8 7 7 7 7 6 6 6 6 6 6 6 6 6 5 5 5 5 5 5 5 5 5 4
20 20 20 20 21 21 20 20 20 20 20 19 19 17 16 13 12 10 9 8 8 7 7 7 6 6 6 6 6 6 5 5 5 5 5 5 5 5 5 5 4 4 4 4
21 20 20 20 21 20 20 20 20 20 19 19 18 17 14 13 11 10 9 8 8 7 7 6 6 6 6 6 6 5 5 5 5 5 5 5 5 5 5 5 4 4 4 4
20 20 20 20 20 19 19 20 20 19 18 18 17 15 14 12 10 9 9 8 7 7 6 6 6 6 6 5 5 5 5 5 5 5 5 5 5 5 5 5 4 4 4 4
19 19 20 20 20 20 19 19 19 19 17 17 16 14 12 10 9 8 8 8 7 7 7 6 6 6 5 5 5 5 5 5 5 5 5 5 5 5 5 5 4 4 4 4
19 19 20 20 19 19 19 19 19 19 17 16 15 13 11 11 12 9 7 7 7 7 6 6 6 6 5 5 5 5 5 5 5 5 5 5 5 5 5 4 4 4 4 4
19 19 19 20 19 20 19 18 18 18 17 15 14 12 12 13 12 9 7 7 7 6 6 6 6 5 5 5 5 5 5 5 5 5 5 5 5 5 5 4 4 4 4 4
20 20 20 20 19 19 17 18 18 17 15 14 13 12 11 10 9 7 7 6 6 6 6 6 6 5 5 5 5 5 5 5 5 5 5 5 5 5 5 4 4 4 4 4
21 21 21 20 19 16 15 16 14 14 14 13 12 11 10 9 8 7 6 6 6 6 6 6 6 5 5 5 5 5 5 5 5 5 5 5 5 5 5 5 5 5 5 5
20 19 19 19 17 15 14 14 13 13 13 12 11 10 9 8 7 7 6 6 6 6 6 6 6 6 5 5 5 5 5 5 5 5 5 5 5 5 5 5 5 5 5 5
20 19 19 18 16 15 14 13 13 12 11 11 10 9 9 8 7 7 6 6 6 6 6 6 6 6 6 6 5 5 5 5 5 5 5 5 5 5 5 5 5 5 4 4
20 20 20 20 17 17 14 12 12 11 11 10 9 9 8 8 7 7 6 6 6 6 6 6 6 6 6 6 6 5 5 5 5 5 6 6 6 6 6 5 5 5 4 4
Wind_Speed
5 8 6 2 3 4 5 7 6 4 2 4 5 4 2 1 1 0 1 1 2 3 5 5 4 4 3 3 3 3 4 4 5 5 5 5 5 4 4 3 5 6 6 6
8 7 2 2 3 5 7 8 6 3 2 4 5 4 3 2 1 0 1 1 2 3 4 5 5 4 3 2 2 2 3 4 4 4 4 4 5 4 4 4 5 6 7 6
7 1 2 4 6 7 7 8 6 5 4 7 7 8 7 5 3 2 2 2 3 3 4 4 5 5 4 2 2 1 2 3 3 4 4 5 5 5 4 4 3 5 6 6
6 3 5 7 6 7 7 4 7 8 9 7 8 8 6 6 5 4 3 3 4 4 5 5 6 6 5 3 2 3 3 3 3 4 5 7 6 6 4 4 4 5 7 8
5 5 7 8 6 6 7 7 8 10 11 11 10 10 5 6 6 5 4 5 4 5 6 6 6 6 6 5 4 3 4 4 4 4 5 6 6 6 6 6 7 7 8 9
9 6 6 7 6 6 6 8 8 10 11 12 9 9 6 5 5 4 5 5 5 6 6 7 7 7 6 6 5 5 6 6 6 6 6 7 9 9 9 9 8 7 7 8
8 8 7 7 8 6 8 9 7 8 9 8 3 6 3 1 1 4 6 7 7 6 6 7 8 8 8 7 7 6 7 8 7 8 8 9 9 9 10 9 9 8 7 8
7 5 4 5 7 7 7 9 9 9 8 6 4 5 1 5 4 6 7 8 8 7 7 8 8 8 8 8 7 7 8 9 9 10 10 10 10 8 8 9 9 9 8 9
5 4 2 3 5 7 7 8 8 10 12 11 5 3 3 4 5 7 8 8 8 8 8 8 8 9 9 9 9 9 9 10 11 11 12 12 12 11 11 11 10 10 9 10
6 8 4 3 5 7 8 7 6 8 8 9 7 7 4 7 7 7 7 8 8 8 9 9 9 9 9 9 9 11 11 12 12 12 12 12 13 12 12 12 12 11 11 11
6 6 5 5 6 6 6 7 7 8 8 9 8 2 4 2 7 8 8 8 9 9 8 9 8 9 9 10 10 11 12 13 13 13 14 14 14 13 13 12 12 11 11 10
5 5 7 5 1 3 6 8 8 8 8 9 9 2 5 3 6 9 9 10 10 10 9 9 9 10 10 11 11 11 12 13 13 13 14 14 14 13 13 13 12 11 11 10
4 4 7 5 5 5 5 6 8 8 9 9 9 1 6 7 8 9 10 10 10 10 10 10 10 10 10 11 11 12 12 13 13 13 14 14 13 13 13 12 11 11 11 10
4 6 8 8 6 5 5 6 7 9 9 9 7 2 5 7 9 9 10 11 11 10 11 10 10 10 10 11 11 12 12 12 13 13 14 13 12 12 11 11 11 10 10 10
4 7 8 8 7 7 8 8 7 8 9 9 5 1 5 8 10 10 11 12 12 11 11 11 10 10 11 12 12 12 12 12 12 13 13 13 12 11 11 11 10 10 9 9
4 6 7 8 7 7 8 7 7 6 6 5 3 0 7 10 10 11 12 12 12 12 12 11 11 11 11 11 12 12 12 11 11 12 12 12 11 11 10 10 9 9 9 8
5 5 7 7 5 7 6 4 4 4 3 3 3 3 12 11 11 11 12 12 12 13 13 12 11 11 11 11 11 11 11 10 10 11 11 10 10 10 9 9 9 8 8 8
6 6 5 6 5 6 2 2 0 1 0 0 4 9 11 11 10 9 10 12 13 14 13 12 11 11 11 11 11 11 11 10 10 10 9 9 8 9 8 8 7 7 7 7
6 6 5 5 6 4 4 4 3 2 1 3 8 12 13 14 11 7 8 11 13 13 13 12 11 11 11 11 11 11 10 10 10 9 8 8 7 8 7 7 7 6 6 6
6 7 6 6 7 4 3 5 3 3 3 7 11 14 15 13 7 7 10 13 13 13 12 12 12 12 12 11 10 10 9 9 9 9 8 8 7 7 7 7 6 5 5 5
7 7 8 8 6 1 5 4 5 4 3 11 12 14 13 7 6 14 15 14 14 14 13 13 12 11 11 10 9 9 9 9 8 8 8 7 7 7 7 6 5 4 4 5
6 5 5 5 5 1 4 4 1 4 8 12 13 13 11 12 17 17 16 16 15 15 14 13 12 11 10 9 9 9 9 8 7 6 7 7 6 5 6 5 4 4 3 4
4 3 2 2 2 5 3 3 4 5 10 12 13 14 15 16 17 17 16 16 15 15 13 12 12 12 10 9 9 10 9 7 6 6 6 7 6 5 4 4 4 3 2 2
4 2 2 2 4 5 5 6 6 9 11 13 14 16 17 18 18 17 16 15 15 14 13 12 12 12 11 10 9 9 8 6 6 6 5 5 5 5 4 3 4 4 3 3
3 5 4 3 6 8 6 7 10 12 14 15 15 15 17 19 18 18 16 16 14 14 12 12 11 11 11 10 9 8 7 6 5 5 4 4 4 4 4 5 5 5 7 7
5 5 4 2 9 8 10 11 13 15 16 16 17 16 17 18 19 18 16 15 14 14 13 12 12 11 11 10 9 7 6 5 4 4 4 3 3 3 3 5 6 6 6 5
Wind_Direction
205 230 229 234 267 297 287 279 273 269 250 265 251 243 232 212 222 184 77 73 93 80 68 55 55 68 90 106 125 151 156 151 161 168 173 166 160 143 133 126 132 135 134 145
217 223 227 234 244 262 265 270 266 246 215 259 253 249 227 209 207 121 74 71 75 79 73 62 56 67 70 85 119 127 140 156 165 166 171 160 139 125 111 106 101 109 118 125
239 117 159 230 237 255 263 274 284 273 255 238 241 240 214 196 184 158 123 94 80 73 69 60 52 50 57 56 57 97 102 129 134 136 139 133 127 125 125 122 106 90 98 100
242 211 228 248 257 273 275 285 277 262 257 252 244 267 218 198 198 182 145 111 88 77 68 58 50 45 42 41 52 73 89 101 108 129 146 148 146 137 133 123 109 94 86 86
222 223 242 260 278 277 295 303 274 264 263 268 245 260 232 193 214 194 144 112 96 80 72 63 52 48 45 47 54 67 80 85 94 114 140 140 130 121 116 111 104 89 78 79
261 248 261 275 280 268 277 270 260 251 251 253 254 260 252 205 219 180 140 123 103 84 77 69 61 57 52 50 57 67 73 74 81 91 103 118 123 123 120 113 107 92 83 78
238 230 222 245 262 236 249 267 263 245 238 249 236 260 276 75 106 160 149 130 109 95 80 69 59 52 49 51 55 65 75 72 74 82 87 96 107 114 112 111 106 99 90 83
267 245 203 225 259 279 260 268 275 285 284 283 241 251 99 81 91 111 122 120 110 94 79 68 60 55 50 51 57 67 77 77 77 80 83 87 91 94 93 94 96 92 89 85
273 279 161 230 255 267 265 259 285 282 278 278 258 225 156 131 129 126 126 122 111 96 85 77 68 61 56 54 57 66 78 80 81 83 86 86 86 88 92 92 90 90 90 88
268 277 259 231 239 230 269 287 269 266 279 279 266 250 227 178 173 153 142 129 114 103 92 82 73 69 64 64 68 73 78 81 81 85 88 89 87 88 90 89 87 87 86 85
248 261 250 231 250 268 232 239 254 271 278 282 284 298 41 167 171 157 143 127 114 105 98 90 83 78 75 75 77 79 82 84 85 87 89 89 88 86 86 86 84 84 84 83
222 263 276 266 261 281 266 268 260 264 269 271 286 310 53 94 140 144 136 123 114 109 102 96 90 86 82 80 79 80 84 88 90 93 93 93 93 90 87 85 83 81 80 79
189 242 271 243 194 202 238 253 260 265 272 273 275 266 90 106 116 123 129 126 119 115 109 102 96 91 88 87 86 86 86 90 93 94 94 92 92 91 90 89 88 86 84 81
222 252 272 293 314 309 274 264 260 262 267 276 280 243 136 130 128 125 130 129 124 122 115 108 102 98 96 93 91 90 90 93 96 96 94 93 93 93 94 93 90 87 85 83
229 257 265 276 281 277 275 277 269 264 278 287 298 298 147 147 145 139 135 132 129 126 120 116 114 109 106 103 99 96 95 95 98 99 98 97 96 96 94 91 89 87 85 85
229 265 269 266 260 259 266 266 263 264 274 270 252 218 126 134 134 138 142 141 136 131 126 123 118 115 112 109 107 105 102 102 104 105 105 104 103 100 96 94 92 89 86 87
225 246 263 273 261 256 255 262 256 244 254 260 269 143 137 140 144 148 148 144 140 136 132 127 123 120 117 115 114 112 111 110 106 105 106 107 106 103 100 100 100 99 97 93
238 244 260 274 264 261 82 84 163 167 126 349 106 130 140 137 132 136 144 143 140 136 132 129 126 122 120 119 118 117 116 113 110 108 108 107 108 105 104 103 101 101 100 99
229 239 258 267 272 272 152 160 186 214 185 136 137 133 129 127 118 114 131 136 135 135 132 130 129 128 127 126 126 124 122 118 114 109 107 105 104 102 102 99 98 99 103 103
202 230 251 265 279 288 107 130 164 223 181 147 148 146 148 155 156 145 138 132 130 131 131 133 133 134 132 132 133 129 124 118 110 104 100 98 96 96 95 94 96 100 107 108
202 220 243 262 267 269 99 139 186 251 106 147 155 156 162 171 124 133 136 134 133 135 137 138 139 137 135 136 134 126 118 109 104 102 100 98 97 96 94 96 97 103 105 102
232 238 241 257 260 155 112 168 207 66 119 144 150 152 142 117 119 130 135 136 138 139 140 139 136 133 135 136 133 125 116 112 110 108 106 104 101 94 94 96 97 98 111 125
237 286 296 323 44 87 100 84 82 119 135 139 143 142 134 131 133 135 137 138 140 139 138 138 135 133 134 135 133 127 125 124 118 110 104 103 99 87 84 92 100 114 122 107
179 187 206 170 124 118 112 109 114 127 132 136 139 139 139 137 139 139 138 138 140 139 140 142 141 137 135 134 130 126 127 127 122 116 115 114 106 102 93 75 76 73 72 79
178 181 196 172 136 135 129 126 125 123 125 129 133 137 140 140 142 141 140 140 140 141 142 145 142 138 136 135 131 133 134 135 126 123 125 120 109 97 97 80 55 52 59 41
188 195 215 200 165 158 144 139 135 132 132 134 134 134 138 141 140 139 138 139 141 142 144 144 142 139 139 140 137 134 134 132 127 127 131 129 119 111 112 118 117 68 60 79
Height
1503 1499 1492 1491 1492 1493 1493 1492 1491 1489 1488 1490 1489 1490 1492 1495 1496 1496 1498 1499 1500 1501 1502 1502 1503 1503 1504 1505 1506 1507 1509 1510 1512 1514 1516 1518 1520 1523 1525 1528 1530 1532 1535 1538
1499 1493 1491 1493 1494 1495 1493 1492 1488 1487 1488 1490 1489 1490 1491 1494 1496 1497 1498 1499 1501 1502 1503 1503 1502 1502 1503 1504 1505 1505 1507 1508 1509 1511 1513 1515 1517 1520 1522 1525 1527 1529 1532 1534
1492 1490 1493 1494 1492 1493 1490 1489 1487 1489 1488 1486 1488 1491 1489 1492 1495 1497 1499 1500 1501 1502 1503 1503 1503 1503 1503 1503 1504 1504 1505 1506 1507 1509 1511 1512 1514 1517 1520 1522 1524 1526 1528 1531
1490 1490 1493 1491 1489 1489 1487 1484 1486 1486 1488 1484 1485 1489 1485 1487 1491 1495 1498 1500 1502 1503 1503 1503 1503 1503 1503 1503 1504 1504 1505 1506 1506 1508 1509 1510 1512 1514 1517 1520 1521 1523 1525 1528
1488 1488 1490 1489 1486 1487 1485 1484 1484 1483 1483 1482 1480 1484 1481 1484 1489 1492 1497 1501 1503 1503 1504 1504 1504 1503 1503 1503 1503 1504 1504 1505 1506 1507 1508 1509 1511 1513 1515 1518 1520 1521 1523 1526
1484 1486 1487 1485 1485 1486 1485 1484 1482 1480 1478 1487 1477 1482 1482 1480 1484 1490 1497 1501 1503 1504 1505 1505 1505 1504 1504 1504 1504 1504 1504 1505 1506 1507 1508 1509 1510 1512 1514 1517 1519 1520 1522 1524
1482 1480 1483 1485 1484 1482 1483 1485 1488 1487 1484 1480 1471 1480 1482 1481 1485 1490 1496 1501 1503 1505 1506 1506 1506 1505 1505 1505 1505 1505 1505 1506 1506 1507 1508 1509 1511 1513 1514 1516 1518 1520 1522 1524
1483 1481 1478 1480 1482 1481 1480 1482 1490 1494 1486 1476 1473 1479 1481 1485 1490 1494 1498 1501 1504 1506 1506 1507 1507 1507 1507 1506 1506 1506 1506 1507 1507 1508 1509 1510 1512 1513 1514 1517 1518 1520 1522 1525
1481 1482 1478 1480 1480 1480 1479 1477 1474 1481 1479 1481 1475 1477 1483 1488 1493 1496 1500 1502 1505 1507 1508 1508 1509 1509 1508 1508 1507 1507 1508 1508 1509 1510 1510 1511 1513 1514 1516 1518 1520 1522 1524 1527
1478 1484 1476 1478 1479 1479 1478 1475 1479 1482 1489 1488 1478 1476 1477 1485 1491 1496 1500 1503 1506 1508 1509 1510 1511 1511 1510 1510 1509 1509 1510 1510 1510 1511 1512 1513 1515 1517 1519 1520 1522 1524 1526 1528
1478 1483 1478 1477 1477 1475 1478 1479 1479 1477 1477 1485 1485 1481 1479 1483 1489 1495 1501 1504 1507 1510 1511 1512 1513 1513 1513 1513 1513 1513 1513 1513 1513 1514 1515 1516 1518 1520 1522 1523 1525 1526 1528 1531
1478 1479 1479 1474 1473 1476 1475 1475 1477 1485 1482 1477 1479 1486 1484 1486 1490 1496 1502 1506 1509 1511 1513 1514 1515 1515 1515 1515 1516 1516 1516 1517 1517 1518 1519 1521 1522 1524 1526 1528 1529 1531 1532 1534
1480 1482 1484 1478 1479 1477 1475 1474 1474 1475 1476 1479 1481 1486 1488 1490 1494 1499 1503 1507 1510 1513 1515 1516 1517 1518 1518 1518 1519 1519 1520 1521 1522 1523 1524 1525 1527 1529 1531 1532 1534 1536 1537 1538
1480 1479 1482 1485 1479 1473 1474 1473 1473 1474 1476 1475 1474 1481 1489 1493 1498 1502 1505 1508 1512 1514 1516 1518 1520 1521 1521 1522 1523 1523 1524 1525 1527 1528 1529 1530 1532 1534 1536 1538 1539 1540 1541 1542
1479 1477 1475 1474 1473 1473 1473 1473 1472 1473 1472 1474 1474 1477 1486 1493 1498 1503 1507 1510 1513 1516 1518 1520 1522 1524 1525 1526 1527 1528 1529 1530 1532 1533 1534 1536 1537 1539 1540 1542 1543 1544 1545 1546
1478 1477 1475 1475 1471 1472 1472 1471 1471 1472 1472 1473 1476 1483 1488 1495 1501 1505 1508 1511 1514 1517 1520 1522 1524 1526 1528 1529 1531 1532 1533 1535 1536 1538 1539 1541 1542 1543 1544 1545 1547 1548 1549 1550
1473 1476 1477 1475 1469 1471 1474 1469 1470 1472 1472 1474 1477 1483 1491 1497 1502 1506 1509 1512 1515 1518 1522 1524 1527 1529 1531 1533 1534 1536 1537 1539 1541 1542 1544 1545 1546 1547 1548 1549 1550 1551 1552 1553
1473 1474 1473 1471 1473 1480 1473 1470 1470 1473 1475 1476 1480 1486 1493 1499 1503 1507 1510 1513 1517 1520 1523 1526 1529 1532 1534 1536 1538 1540 1541 1543 1545 1546 1548 1549 1550 1551 1552 1553 1553 1554 1555 1555
1473 1473 1472 1471 1471 1468 1470 1470 1471 1473 1477 1480 1484 1491 1497 1502 1506 1510 1513 1515 1518 1521 1525 1528 1531 1534 1537 1539 1541 1543 1545 1547 1549 1550 1551 1552 1553 1554 1555 1555 1556 1556 1557 1557
1472 1471 1471 1469 1474 1474 1469 1469 1472 1474 1478 1483 1487 1492 1497 1501 1502 1511 1514 1517 1520 1524 1527 1530 1533 1537 1539 1542 1544 1546 1548 1550 1552 1553 1554 1555 1556 1556 1557 1557 1558 1559 1559 1560
1468 1469 1468 1467 1469 1464 1468 1471 1474 1476 1477 1483 1488 1492 1497 1498 1500 1509 1514 1518 1522 1525 1529 1533 1536 1539 1542 1544 1547 1549 1551 1553 1554 1555 1556 1557 1558 1558 1559 1559 1560 1560 1561 1561
1461 1462 1463 1464 1467 1470 1472 1471 1472 1477 1480 1484 1489 1494 1498 1501 1505 1510 1515 1520 1524 1528 1532 1535 1538 1541 1544 1547 1549 1551 1553 1555 1556 1557 1558 1559 1560 1561 1561 1561 1561 1561 1562 1562
1457 1458 1456 1461 1469 1473 1474 1475 1478 1480 1482 1486 1491 1495 1499 1503 1508 1513 1518 1522 1526 1530 1534 1537 1541 1544 1547 1549 1551 1553 1555 1557 1558 1559 1560 1561 1561 1562 1562 1562 1562 1563 1563 1563
1459 1462 1461 1464 1469 1474 1477 1479 1480 1482 1485 1489 1493 1497 1501 1505 1510 1515 1520 1524 1529 1532 1536 1540 1543 1546 1549 1552 1554 1556 1558 1559 1560 1561 1562 1562 1563 1563 1563 1564 1564 1564 1564 1565
1455 1460 1460 1464 1472 1476 1479 1480 1482 1485 1488 1492 1496 1499 1503 1507 1512 1517 1522 1526 1531 1535 1538 1542 1545 1548 1551 1554 1556 1558 1559 1561 1562 1562 1563 1564 1564 1565 1565 1565 1565 1565 1565 1565
1455 1457 1458 1458 1466 1469 1477 1481 1484 1487 1490 1494 1498 1502 1507 1510 1514 1519 1524 1528 1533 1537 1541 1544 1548 1550 1553 1556 1558 1560 1561 1562 1563 1564 1564 1565 1566 1566 1566 1566 1566 1566 1566 1566